Date String (YYYY-MM-DD hh:mm:ss) UTC,Instrument flags,Ambient pressure (hPa),Sample flow (lpm),Bypass flow (lpm),Sample temperature (°C),Ambient temperature (°C),ASC tube jacket temperature (°C),LED temperature (°C),Box temperature (°C),Sample RH (%),Span deviation,Mass concentration (μg/m³),Mass concentration (μg/m³),Mass concentration (μg/m³)
DateTimeUTC,F1_M11,P_M11,Q1_M11,Q2_M11,T1_M11,T2_M11,T3_M11,T4_M11,T5_M11,U1_M11,ZSPAN_M11,X2_M11,X0_M11,X1_M11
2023-02-26 16:00:00,,0812.6,5.00,0.00,22.5,21.0,00.0,31.3,24.3,14.8,0000.0,0006.01,0009.62,0005.38
2023-02-26 16:01:00,,0812.5,5.00,0.00,22.5,21.0,00.0,31.3,24.3,15.1,0000.0,0006.00,0009.48,0005.37
2023-02-26 16:02:00,,0812.5,4.98,0.00,22.5,21.0,00.0,31.3,24.2,14.8,0000.0,0005.97,0009.46,0005.35
2023-02-26 16:03:00,,0812.5,5.00,0.00,22.5,21.0,00.0,31.3,24.2,15.0,0000.0,0005.90,0009.54,0005.31
2023-02-26 16:04:00,,0812.4,5.00,0.00,22.5,21.0,00.0,31.3,24.3,15.1,0000.0,0005.85,0010.01,0005.30
2023-02-26 16:05:00,,0812.4,5.01,0.00,22.5,21.1,00.0,31.3,24.3,15.1,0000.0,0005.81,0009.94,0005.29
2023-02-26 16:06:00,,0812.4,4.99,0.00,22.5,21.1,00.0,31.3,24.3,15.3,0000.0,0005.77,0009.90,0005.26
2023-02-26 16:07:00,,0812.4,5.01,0.00,22.5,21.1,00.0,31.3,24.3,15.0,0000.0,0005.73,0009.86,0005.24
2023-02-26 16:08:00,,0812.3,4.99,0.00,22.5,21.1,00.0,31.3,24.3,15.1,0000.0,0005.71,0010.19,0005.21
2023-02-26 16:09:00,,0812.3,5.00,0.00,22.5,21.1,00.0,31.3,24.3,15.2,0000.0,0005.69,0010.56,0005.19
2023-02-26 16:10:00,,0812.3,5.00,0.00,22.5,21.2,00.0,31.3,24.3,15.3,0000.0,0005.74,0010.63,0005.20
2023-02-26 16:11:00,,0812.2,5.00,0.00,22.5,21.2,00.0,31.3,24.3,15.4,0000.0,0005.73,0010.60,0005.21
2023-02-26 16:12:00,,0812.2,5.01,0.00,22.5,21.2,00.0,31.3,24.3,15.2,0000.0,0005.72,0011.14,0005.22
2023-02-26 16:13:00,,0812.2,4.99,0.00,22.5,21.2,00.0,31.3,24.3,15.8,0000.0,0005.76,0011.68,0005.22
2023-02-26 16:14:00,,0812.2,4.99,0.00,22.5,21.2,00.0,31.3,24.3,15.1,0000.0,0005.81,0012.31,0005.23
2023-02-26 16:15:00,,0812.1,5.00,0.00,22.6,21.3,00.0,31.3,24.4,15.2,0000.0,0005.81,0012.14,0005.21
2023-02-26 16:16:00,,0812.2,5.01,0.00,22.6,21.3,00.0,31.3,24.4,15.2,0000.0,0005.77,0011.83,0005.19
2023-02-26 16:17:00,,0812.1,5.00,0.00,22.6,21.3,00.0,31.3,24.4,16.1,0000.0,0005.76,0012.05,0005.17
2023-02-26 16:18:00,,0812.1,4.99,0.00,22.6,21.4,00.0,31.3,24.5,15.8,0000.0,0005.78,0012.38,0005.17
2023-02-26 16:19:00,,0812.2,5.00,0.00,22.6,21.4,00.0,31.3,24.4,15.6,0000.0,0005.75,0012.54,0005.17
2023-02-26 16:20:00,,0812.1,5.00,0.00,22.6,21.3,00.0,31.3,24.4,15.5,0000.0,0005.74,0011.90,0005.16
2023-02-26 16:21:00,,0812.1,4.99,0.00,22.6,21.2,00.0,31.3,24.4,15.2,0000.0,0005.68,0011.75,0005.15
2023-02-26 16:22:00,,0812.0,5.00,0.00,22.6,21.2,00.0,31.3,24.4,15.4,0000.0,0005.66,0011.59,0005.14
2023-02-26 16:23:00,,0812.1,5.00,0.00,22.6,21.1,00.0,31.3,24.3,15.2,0000.0,0005.68,0011.11,0005.15
2023-02-26 16:24:00,,0812.1,5.00,0.00,22.5,21.1,00.0,31.3,24.3,15.1,0000.0,0005.66,0010.55,0005.14
2023-02-26 16:25:00,,0812.0,5.01,0.00,22.5,21.1,00.0,31.3,24.3,15.1,0000.0,0005.61,0010.01,0005.13
2023-02-26 16:26:00,,0812.0,5.01,0.00,22.5,21.1,00.0,31.3,24.3,15.2,0000.0,0005.60,0009.73,0005.13
2023-02-26 16:27:00,,0811.9,4.98,0.00,22.6,21.2,00.0,31.3,24.4,15.5,0000.0,0005.66,0010.80,0005.15
2023-02-26 16:28:00,,0811.9,4.99,0.00,22.6,21.2,00.0,31.3,24.4,15.6,0000.0,0005.67,0010.86,0005.16
2023-02-26 16:29:00,,0811.8,5.01,0.00,22.6,21.2,00.0,31.3,24.4,15.2,0000.0,0005.64,0011.08,0005.15
2023-02-26 16:30:00,,0811.9,5.00,0.00,22.6,21.3,00.0,31.3,24.4,15.2,0000.0,0005.67,0011.03,0005.14
2023-02-26 16:31:00,,0811.9,5.00,0.00,22.6,21.3,00.0,31.3,24.4,15.3,0000.0,0005.65,0011.54,0005.14
2023-02-26 16:32:00,,0811.9,5.00,0.00,22.6,21.3,00.0,31.3,24.4,14.9,0000.0,0005.62,0011.48,0005.11
2023-02-26 16:33:00,,0811.8,5.01,0.00,22.6,21.3,00.0,31.3,24.4,14.8,0000.0,0005.59,0011.52,0005.07
2023-02-26 16:34:00,,0811.7,5.02,0.00,22.6,21.3,00.0,31.3,24.4,14.7,0000.0,0005.58,0011.51,0005.05
2023-02-26 16:35:00,,0811.7,5.00,0.00,22.6,21.4,00.0,31.3,24.5,14.6,0000.0,0005.51,0011.42,0005.02
2023-02-26 16:36:00,,0811.7,4.99,0.00,22.6,21.4,00.0,31.3,24.5,14.5,0000.0,0005.46,0011.41,0004.97
2023-02-26 16:37:00,,0811.6,5.01,0.00,22.6,21.5,00.0,31.3,24.5,14.6,0000.0,0005.44,0011.86,0004.93
2023-02-26 16:38:00,,0811.6,5.00,0.00,22.7,21.5,00.0,31.3,24.6,14.6,0000.0,0005.41,0011.82,0004.89
2023-02-26 16:39:00,,0811.6,5.00,0.00,22.7,21.5,00.0,31.3,24.6,14.5,0000.0,0005.36,0011.04,0004.84
2023-02-26 16:40:00,,0811.6,4.98,0.00,22.7,21.5,00.0,31.3,24.6,14.3,0000.0,0005.32,0010.49,0004.80
2023-02-26 16:41:00,,0811.6,5.00,0.00,22.7,21.6,00.0,31.4,24.6,14.5,0000.0,0005.30,0010.20,0004.77
2023-02-26 16:42:00,,0811.6,5.00,0.00,22.7,21.6,00.0,31.4,24.6,14.4,0000.0,0005.23,0009.99,0004.71
2023-02-26 16:43:00,,0811.5,5.00,0.00,22.8,21.6,00.0,31.4,24.7,13.6,0000.0,0005.16,0010.11,0004.63
2023-02-26 16:44:00,,0811.5,5.00,0.00,22.8,21.6,00.0,31.4,24.7,13.6,0000.0,0005.12,0009.89,0004.58
2023-02-26 16:45:00,,0811.5,5.00,0.00,22.8,21.7,00.0,31.4,24.7,13.6,0000.0,0005.09,0009.85,0004.54
2023-02-26 16:46:00,,0811.4,4.99,0.00,22.8,21.7,00.0,31.4,24.7,13.7,0000.0,0005.07,0009.88,0004.49
2023-02-26 16:47:00,,0811.3,5.00,0.00,22.8,21.7,00.0,31.4,24.7,13.8,0000.0,0005.05,0010.05,0004.44
2023-02-26 16:48:00,,0811.2,5.00,0.00,22.8,21.7,00.0,31.4,24.8,13.5,0000.0,0005.00,0009.95,0004.40
2023-02-26 16:49:00,,0811.2,5.00,0.00,22.9,21.7,00.0,31.4,24.8,13.5,0000.0,0004.95,0009.58,0004.35
2023-02-26 16:50:00,,0811.3,5.00,0.00,22.9,21.8,00.0,31.5,24.8,13.8,0000.0,0004.86,0009.43,0004.30
2023-02-26 16:51:00,,0811.3,5.00,0.00,22.9,21.8,00.0,31.5,24.8,14.0,0000.0,0004.85,0009.51,0004.28
2023-02-26 16:52:00,,0811.2,5.00,0.00,22.9,21.8,00.0,31.5,24.8,14.9,0000.0,0004.87,0009.65,0004.28
2023-02-26 16:53:00,,0811.2,5.02,0.00,22.9,21.8,00.0,31.5,24.8,15.1,0000.0,0004.91,0009.54,0004.30
2023-02-26 16:54:00,,0811.2,5.00,0.00,22.9,21.8,00.0,31.5,24.9,16.2,0000.0,0004.97,0008.84,0004.36
2023-02-26 16:55:00,,0811.1,5.01,0.00,22.9,21.8,00.0,31.5,24.9,16.5,0000.0,0005.04,0008.94,0004.45
2023-02-26 16:56:00,,0811.1,5.00,0.00,22.9,21.7,00.0,31.6,24.9,16.5,0000.0,0005.15,0009.13,0004.55
2023-02-26 16:57:00,,0811.1,4.99,0.00,22.9,21.7,00.0,31.6,24.8,16.4,0000.0,0005.24,0009.16,0004.66
2023-02-26 16:58:00,,0811.2,5.01,0.00,23.0,21.8,00.0,31.6,24.9,16.3,0000.0,0005.33,0009.30,0004.76
2023-02-26 16:59:00,,0811.2,5.01,0.00,23.0,21.8,00.0,31.6,24.9,16.2,0000.0,0005.44,0009.80,0004.85
